owner,sensor,date,latitude,longitude,vertical_datum,sea_water_temperature,qcFlag 
CenGOOS,ioos:station:wmo:42067:1,2011-10-01T00:40:00Z,30.0430,-88.6490,-1.4,27.8,2 
CenGOOS,ioos:station:wmo:42067:1,2011-10-01T01:40:00Z,30.0430,-88.6490,-1.4,27.8,2 
CenGOOS,ioos:station:wmo:42067:1,2011-10-01T02:40:00Z,30.0430,-88.6490,-1.4,27.8,2 
CenGOOS,ioos:station:wmo:42067:1,2011-10-01T03:40:00Z,30.0430,-88.6490,-1.4,27.8,2 
CenGOOS,ioos:station:wmo:42067:1,2011-10-01T05:40:00Z,30.0430,-88.6490,-1.4,27.6,2 
CenGOOS,ioos:station:wmo:42067:1,2011-10-01T07:40:00Z,30.0430,-88.6490,-1.4,27.4,2 
CenGOOS,ioos:station:wmo:42067:1,2011-10-01T08:40:00Z,30.0430,-88.6490,-1.4,27.4,2 
CenGOOS,ioos:station:wmo:42067:1,2011-10-01T09:40:00Z,30.0430,-88.6490,-1.4,27.3,2 
CenGOOS,ioos:station:wmo:42067:1,2011-10-01T12:40:00Z,30.0430,-88.6490,-1.4,27.2,2 
CenGOOS,ioos:station:wmo:42067:1,2011-10-01T19:40:00Z,30.0430,-88.6490,-1.4,27.1,2 
CenGOOS,ioos:station:wmo:42067:1,2011-10-01T20:40:00Z,30.0430,-88.6490,-1.4,27.1,2 
CenGOOS,ioos:station:wmo:42067:1,2011-10-01T21:40:00Z,30.0430,-88.6490,-1.4,27.0,2 
CenGOOS,ioos:station:wmo:42067:1,2011-10-01T23:40:00Z,30.0430,-88.6490,-1.4,27.0,2 
CenGOOS,ioos:station:wmo:42067:1,2011-10-02T02:40:00Z,30.0430,-88.6490,-1.4,26.8,2 
CenGOOS,ioos:station:wmo:42067:1,2011-10-02T04:40:00Z,30.0430,-88.6490,-1.4,26.8,2 
CenGOOS,ioos:station:wmo:42067:1,2011-10-02T10:40:00Z,30.0430,-88.6490,-1.4,26.6,2 
CenGOOS,ioos:station:wmo:42067:1,2011-10-02T12:40:00Z,30.0430,-88.6490,-1.4,26.4,2 
CenGOOS,ioos:station:wmo:42067:1,2011-10-02T17:40:00Z,30.0430,-88.6490,-1.4,26.4,2 
CenGOOS,ioos:station:wmo:42067:1,2011-10-02T19:40:00Z,30.0430,-88.6490,-1.4,26.5,2 
CenGOOS,ioos:station:wmo:42067:1,2011-10-02T21:40:00Z,30.0430,-88.6490,-1.4,26.6,2 
CenGOOS,ioos:station:wmo:42067:1,2011-10-03T02:40:00Z,30.0430,-88.6490,-1.4,26.2,2 
CenGOOS,ioos:station:wmo:42067:1,2011-10-03T03:40:00Z,30.0430,-88.6490,-1.4,26.2,2 
CenGOOS,ioos:station:wmo:42067:1,2011-10-03T04:40:00Z,30.0430,-88.6490,-1.4,26.2,2 
CenGOOS,ioos:station:wmo:42067:1,2011-10-03T05:40:00Z,30.0430,-88.6490,-1.4,26.1,2 
CenGOOS,ioos:station:wmo:42067:1,2011-10-03T06:40:00Z,30.0430,-88.6490,-1.4,26.1,2 
CenGOOS,ioos:station:wmo:42067:1,2011-10-03T07:40:00Z,30.0430,-88.6490,-1.4,26.1,2 
CenGOOS,ioos:station:wmo:42067:1,2011-10-03T08:40:00Z,30.0430,-88.6490,-1.4,26.0,2 
CenGOOS,ioos:station:wmo:42067:1,2011-10-03T09:40:00Z,30.0430,-88.6490,-1.4,25.9,2 
CenGOOS,ioos:station:wmo:42067:1,2011-10-03T10:40:00Z,30.0430,-88.6490,-1.4,25.9,2 
CenGOOS,ioos:station:wmo:42067:1,2011-10-03T11:40:00Z,30.0430,-88.6490,-1.4,25.9,2 
CenGOOS,ioos:station:wmo:42067:1,2011-10-03T13:40:00Z,30.0430,-88.6490,-1.4,25.8,2 
CenGOOS,ioos:station:wmo:42067:1,2011-10-03T14:40:00Z,30.0430,-88.6490,-1.4,25.8,2 
CenGOOS,ioos:station:wmo:42067:1,2011-10-03T15:40:00Z,30.0430,-88.6490,-1.4,25.8,2 
CenGOOS,ioos:station:wmo:42067:1,2011-10-03T16:40:00Z,30.0430,-88.6490,-1.4,25.9,2 
CenGOOS,ioos:station:wmo:42067:1,2011-10-03T17:40:00Z,30.0430,-88.6490,-1.4,25.9,2 
CenGOOS,ioos:station:wmo:42067:1,2011-10-03T18:40:00Z,30.0430,-88.6490,-1.4,26.0,2 
CenGOOS,ioos:station:wmo:42067:1,2011-10-03T19:40:00Z,30.0430,-88.6490,-1.4,26.1,2 
CenGOOS,ioos:station:wmo:42067:1,2011-10-03T21:40:00Z,30.0430,-88.6490,-1.4,26.1,2 
CenGOOS,ioos:station:wmo:42067:1,2011-10-03T23:40:00Z,30.0430,-88.6490,-1.4,26.0,2 
CenGOOS,ioos:station:wmo:42067:1,2011-10-04T01:40:00Z,30.0430,-88.6490,-1.4,26.0,2 
CenGOOS,ioos:station:wmo:42067:1,2011-10-04T03:40:00Z,30.0430,-88.6490,-1.4,26.0,2 
CenGOOS,ioos:station:wmo:42067:1,2011-10-04T07:40:00Z,30.0430,-88.6490,-1.4,26.3,2 
CenGOOS,ioos:station:wmo:42067:1,2011-10-04T09:40:00Z,30.0430,-88.6490,-1.4,26.2,2 
CenGOOS,ioos:station:wmo:42067:1,2011-10-04T13:40:00Z,30.0430,-88.6490,-1.4,25.9,2 
CenGOOS,ioos:station:wmo:42067:1,2011-10-04T14:40:00Z,30.0430,-88.6490,-1.4,25.9,2 
CenGOOS,ioos:station:wmo:42067:1,2011-10-04T15:40:00Z,30.0430,-88.6490,-1.4,26.1,2 
CenGOOS,ioos:station:wmo:42067:1,2011-10-04T17:40:00Z,30.0430,-88.6490,-1.4,26.2,2 
CenGOOS,ioos:station:wmo:42067:1,2011-10-04T18:40:00Z,30.0430,-88.6490,-1.4,26.2,2 
CenGOOS,ioos:station:wmo:42067:1,2011-10-04T20:40:00Z,30.0430,-88.6490,-1.4,26.1,2 
CenGOOS,ioos:station:wmo:42067:1,2011-10-04T21:40:00Z,30.0430,-88.6490,-1.4,26.1,2 
CenGOOS,ioos:station:wmo:42067:1,2011-10-04T22:40:00Z,30.0430,-88.6490,-1.4,26.0,2 
CenGOOS,ioos:station:wmo:42067:1,2011-10-04T23:40:00Z,30.0430,-88.6490,-1.4,25.9,2 
CenGOOS,ioos:station:wmo:42067:1,2011-10-05T00:40:00Z,30.0430,-88.6490,-1.4,25.9,2 
CenGOOS,ioos:station:wmo:42067:1,2011-10-05T01:40:00Z,30.0430,-88.6490,-1.4,25.8,2 
CenGOOS,ioos:station:wmo:42067:1,2011-10-05T02:40:00Z,30.0430,-88.6490,-1.4,26.0,2 
CenGOOS,ioos:station:wmo:42067:1,2011-10-05T04:40:00Z,30.0430,-88.6490,-1.4,26.2,2 
CenGOOS,ioos:station:wmo:42067:1,2011-10-05T06:40:00Z,30.0430,-88.6490,-1.4,26.2,2 
CenGOOS,ioos:station:wmo:42067:1,2011-10-05T07:40:00Z,30.0430,-88.6490,-1.4,26.1,2 
CenGOOS,ioos:station:wmo:42067:1,2011-10-05T08:40:00Z,30.0430,-88.6490,-1.4,26.1,2 
CenGOOS,ioos:station:wmo:42067:1,2011-10-05T11:40:00Z,30.0430,-88.6490,-1.4,26.1,2 
CenGOOS,ioos:station:wmo:42067:1,2011-10-05T19:40:00Z,30.0430,-88.6490,-1.4,26.2,2 
CenGOOS,ioos:station:wmo:42067:1,2011-10-05T21:40:00Z,30.0430,-88.6490,-1.4,26.2,2 
CenGOOS,ioos:station:wmo:42067:1,2011-10-05T22:40:00Z,30.0430,-88.6490,-1.4,26.1,2 
CenGOOS,ioos:station:wmo:42067:1,2011-10-06T01:40:00Z,30.0430,-88.6490,-1.4,26.0,2 
CenGOOS,ioos:station:wmo:42067:1,2011-10-06T05:40:00Z,30.0430,-88.6490,-1.4,25.9,2 
CenGOOS,ioos:station:wmo:42067:1,2011-10-06T09:40:00Z,30.0430,-88.6490,-1.4,25.8,2 
CenGOOS,ioos:station:wmo:42067:1,2011-10-06T10:40:00Z,30.0430,-88.6490,-1.4,25.8,2 
CenGOOS,ioos:station:wmo:42067:1,2011-10-06T11:40:00Z,30.0430,-88.6490,-1.4,25.8,2 
CenGOOS,ioos:station:wmo:42067:1,2011-10-06T16:40:00Z,30.0430,-88.6490,-1.4,25.8,2 
CenGOOS,ioos:station:wmo:42067:1,2011-10-06T18:40:00Z,30.0430,-88.6490,-1.4,25.8,2 
CenGOOS,ioos:station:wmo:42067:1,2011-10-06T20:40:00Z,30.0430,-88.6490,-1.4,25.8,2 
CenGOOS,ioos:station:wmo:42067:1,2011-10-07T03:40:00Z,30.0430,-88.6490,-1.4,25.7,2 
CenGOOS,ioos:station:wmo:42067:1,2011-10-07T04:40:00Z,30.0430,-88.6490,-1.4,25.7,2 
CenGOOS,ioos:station:wmo:42067:1,2011-10-07T05:40:00Z,30.0430,-88.6490,-1.4,25.7,2 
CenGOOS,ioos:station:wmo:42067:1,2011-10-07T06:40:00Z,30.0430,-88.6490,-1.4,25.6,2 
CenGOOS,ioos:station:wmo:42067:1,2011-10-07T07:40:00Z,30.0430,-88.6490,-1.4,25.6,2 
CenGOOS,ioos:station:wmo:42067:1,2011-10-07T08:40:00Z,30.0430,-88.6490,-1.4,25.6,2 
CenGOOS,ioos:station:wmo:42067:1,2011-10-07T09:40:00Z,30.0430,-88.6490,-1.4,25.6,2 
CenGOOS,ioos:station:wmo:42067:1,2011-10-07T10:40:00Z,30.0430,-88.6490,-1.4,25.6,2 
CenGOOS,ioos:station:wmo:42067:1,2011-10-07T12:40:00Z,30.0430,-88.6490,-1.4,25.6,2 
CenGOOS,ioos:station:wmo:42067:1,2011-10-07T13:40:00Z,30.0430,-88.6490,-1.4,25.6,2 
CenGOOS,ioos:station:wmo:42067:1,2011-10-07T14:40:00Z,30.0430,-88.6490,-1.4,25.6,2 
CenGOOS,ioos:station:wmo:42067:1,2011-10-07T15:40:00Z,30.0430,-88.6490,-1.4,25.6,2 
CenGOOS,ioos:station:wmo:42067:1,2011-10-07T16:40:00Z,30.0430,-88.6490,-1.4,25.6,2 
CenGOOS,ioos:station:wmo:42067:1,2011-10-07T17:40:00Z,30.0430,-88.6490,-1.4,25.6,2 
CenGOOS,ioos:station:wmo:42067:1,2011-10-07T18:40:00Z,30.0430,-88.6490,-1.4,25.6,2 
CenGOOS,ioos:station:wmo:42067:1,2011-10-07T19:00:00Z,30.0430,-88.6490,-1.4,25.6,2 
CenGOOS,ioos:station:wmo:42067:1,2011-10-07T20:40:00Z,30.0430,-88.6490,-1.4,25.6,2 
CenGOOS,ioos:station:wmo:42067:1,2011-10-07T21:00:00Z,30.0430,-88.6490,-1.4,25.6,2 
CenGOOS,ioos:station:wmo:42067:1,2011-10-07T22:40:00Z,30.0430,-88.6490,-1.4,25.6,2 
CenGOOS,ioos:station:wmo:42067:1,2011-10-07T23:00:00Z,30.0430,-88.6490,-1.4,25.6,2 
CenGOOS,ioos:station:wmo:42067:1,2011-10-08T00:40:00Z,30.0430,-88.6490,-1.4,25.5,2 
CenGOOS,ioos:station:wmo:42067:1,2011-10-08T01:00:00Z,30.0430,-88.6490,-1.4,25.5,2 
CenGOOS,ioos:station:wmo:42067:1,2011-10-08T02:40:00Z,30.0430,-88.6490,-1.4,25.4,2 
CenGOOS,ioos:station:wmo:42067:1,2011-10-08T03:00:00Z,30.0430,-88.6490,-1.4,25.4,2 
CenGOOS,ioos:station:wmo:42067:1,2011-10-08T06:40:00Z,30.0430,-88.6490,-1.4,25.9,2 
CenGOOS,ioos:station:wmo:42067:1,2011-10-08T07:00:00Z,30.0430,-88.6490,-1.4,25.9,2 
CenGOOS,ioos:station:wmo:42067:1,2011-10-08T08:40:00Z,30.0430,-88.6490,-1.4,25.8,2 
CenGOOS,ioos:station:wmo:42067:1,2011-10-08T09:00:00Z,30.0430,-88.6490,-1.4,25.8,2 
CenGOOS,ioos:station:wmo:42067:1,2011-10-08T09:40:00Z,30.0430,-88.6490,-1.4,25.8,2 
CenGOOS,ioos:station:wmo:42067:1,2011-10-08T10:00:00Z,30.0430,-88.6490,-1.4,25.8,2 
CenGOOS,ioos:station:wmo:42067:1,2011-10-08T10:40:00Z,30.0430,-88.6490,-1.4,25.9,2 
CenGOOS,ioos:station:wmo:42067:1,2011-10-08T11:00:00Z,30.0430,-88.6490,-1.4,25.9,2 
CenGOOS,ioos:station:wmo:42067:1,2011-10-08T11:40:00Z,30.0430,-88.6490,-1.4,25.8,2 
CenGOOS,ioos:station:wmo:42067:1,2011-10-08T12:00:00Z,30.0430,-88.6490,-1.4,25.8,2 
CenGOOS,ioos:station:wmo:42067:1,2011-10-08T12:40:00Z,30.0430,-88.6490,-1.4,25.8,2 
CenGOOS,ioos:station:wmo:42067:1,2011-10-08T13:00:00Z,30.0430,-88.6490,-1.4,25.8,2 
CenGOOS,ioos:station:wmo:42067:1,2011-10-08T13:40:00Z,30.0430,-88.6490,-1.4,25.8,2 
CenGOOS,ioos:station:wmo:42067:1,2011-10-08T14:00:00Z,30.0430,-88.6490,-1.4,25.8,2 
CenGOOS,ioos:station:wmo:42067:1,2011-10-08T14:40:00Z,30.0430,-88.6490,-1.4,25.8,2 
CenGOOS,ioos:station:wmo:42067:1,2011-10-08T15:00:00Z,30.0430,-88.6490,-1.4,25.8,2 
CenGOOS,ioos:station:wmo:42067:1,2011-10-08T15:40:00Z,30.0430,-88.6490,-1.4,25.8,2 
CenGOOS,ioos:station:wmo:42067:1,2011-10-08T16:00:00Z,30.0430,-88.6490,-1.4,25.8,2 
CenGOOS,ioos:station:wmo:42067:1,2011-10-08T17:40:00Z,30.0430,-88.6490,-1.4,25.8,2 
CenGOOS,ioos:station:wmo:42067:1,2011-10-08T18:00:00Z,30.0430,-88.6490,-1.4,25.8,2 
CenGOOS,ioos:station:wmo:42067:1,2011-10-08T19:40:00Z,30.0430,-88.6490,-1.4,25.8,2 
CenGOOS,ioos:station:wmo:42067:1,2011-10-08T20:00:00Z,30.0430,-88.6490,-1.4,25.8,2 
CenGOOS,ioos:station:wmo:42067:1,2011-10-08T20:40:00Z,30.0430,-88.6490,-1.4,25.9,2 
CenGOOS,ioos:station:wmo:42067:1,2011-10-08T21:00:00Z,30.0430,-88.6490,-1.4,25.9,2 
CenGOOS,ioos:station:wmo:42067:1,2011-10-08T21:40:00Z,30.0430,-88.6490,-1.4,25.9,2 
CenGOOS,ioos:station:wmo:42067:1,2011-10-08T22:00:00Z,30.0430,-88.6490,-1.4,25.9,2 
CenGOOS,ioos:station:wmo:42067:1,2011-10-08T22:40:00Z,30.0430,-88.6490,-1.4,25.9,2 
CenGOOS,ioos:station:wmo:42067:1,2011-10-08T23:00:00Z,30.0430,-88.6490,-1.4,25.9,2 
CenGOOS,ioos:station:wmo:42067:1,2011-10-08T23:40:00Z,30.0430,-88.6490,-1.4,25.9,2 
CenGOOS,ioos:station:wmo:42067:1,2011-10-09T00:00:00Z,30.0430,-88.6490,-1.4,25.9,2 
CenGOOS,ioos:station:wmo:42067:1,2011-10-09T00:40:00Z,30.0430,-88.6490,-1.4,25.9,2 
CenGOOS,ioos:station:wmo:42067:1,2011-10-09T01:00:00Z,30.0430,-88.6490,-1.4,25.9,2 
CenGOOS,ioos:station:wmo:42067:1,2011-10-09T03:40:00Z,30.0430,-88.6490,-1.4,25.5,2 
CenGOOS,ioos:station:wmo:42067:1,2011-10-09T04:00:00Z,30.0430,-88.6490,-1.4,25.5,2 
CenGOOS,ioos:station:wmo:42067:1,2011-10-09T05:40:00Z,30.0430,-88.6490,-1.4,25.5,2 
CenGOOS,ioos:station:wmo:42067:1,2011-10-09T06:00:00Z,30.0430,-88.6490,-1.4,25.5,2 
CenGOOS,ioos:station:wmo:42067:1,2011-10-09T18:40:00Z,30.0430,-88.6490,-1.4,25.6,2 
CenGOOS,ioos:station:wmo:42067:1,2011-10-09T19:40:00Z,30.0430,-88.6490,-1.4,25.6,2 
CenGOOS,ioos:station:wmo:42067:1,2011-10-09T20:00:00Z,30.0430,-88.6490,-1.4,25.6,2 
CenGOOS,ioos:station:wmo:42067:1,2011-10-09T20:40:00Z,30.0430,-88.6490,-1.4,25.6,2 
CenGOOS,ioos:station:wmo:42067:1,2011-10-09T21:00:00Z,30.0430,-88.6490,-1.4,25.6,2 
CenGOOS,ioos:station:wmo:42067:1,2011-10-09T21:40:00Z,30.0430,-88.6490,-1.4,25.6,2 
CenGOOS,ioos:station:wmo:42067:1,2011-10-09T22:00:00Z,30.0430,-88.6490,-1.4,25.6,2 
CenGOOS,ioos:station:wmo:42067:1,2011-10-10T00:40:00Z,30.0430,-88.6490,-1.4,25.5,2 
CenGOOS,ioos:station:wmo:42067:1,2011-10-10T01:00:00Z,30.0430,-88.6490,-1.4,25.5,2 
CenGOOS,ioos:station:wmo:42067:1,2011-10-10T04:40:00Z,30.0430,-88.6490,-1.4,25.5,2 
CenGOOS,ioos:station:wmo:42067:1,2011-10-10T05:00:00Z,30.0430,-88.6490,-1.4,25.5,2 
CenGOOS,ioos:station:wmo:42067:1,2011-10-10T05:40:00Z,30.0430,-88.6490,-1.4,25.5,2 
CenGOOS,ioos:station:wmo:42067:1,2011-10-10T06:00:00Z,30.0430,-88.6490,-1.4,25.5,2 
CenGOOS,ioos:station:wmo:42067:1,2011-10-10T06:40:00Z,30.0430,-88.6490,-1.4,25.4,2 
CenGOOS,ioos:station:wmo:42067:1,2011-10-10T07:00:00Z,30.0430,-88.6490,-1.4,25.4,2 
CenGOOS,ioos:station:wmo:42067:1,2011-10-10T07:40:00Z,30.0430,-88.6490,-1.4,25.4,2 
CenGOOS,ioos:station:wmo:42067:1,2011-10-10T08:00:00Z,30.0430,-88.6490,-1.4,25.4,2 
CenGOOS,ioos:station:wmo:42067:1,2011-10-10T08:40:00Z,30.0430,-88.6490,-1.4,25.4,2 
CenGOOS,ioos:station:wmo:42067:1,2011-10-10T09:00:00Z,30.0430,-88.6490,-1.4,25.4,2 
CenGOOS,ioos:station:wmo:42067:1,2011-10-10T09:40:00Z,30.0430,-88.6490,-1.4,25.4,2 
CenGOOS,ioos:station:wmo:42067:1,2011-10-10T10:00:00Z,30.0430,-88.6490,-1.4,25.4,2 
CenGOOS,ioos:station:wmo:42067:1,2011-10-10T10:40:00Z,30.0430,-88.6490,-1.4,25.4,2 
CenGOOS,ioos:station:wmo:42067:1,2011-10-10T11:00:00Z,30.0430,-88.6490,-1.4,25.4,2 
CenGOOS,ioos:station:wmo:42067:1,2011-10-10T11:40:00Z,30.0430,-88.6490,-1.4,25.4,2 
CenGOOS,ioos:station:wmo:42067:1,2011-10-10T12:00:00Z,30.0430,-88.6490,-1.4,25.4,2 
CenGOOS,ioos:station:wmo:42067:1,2011-10-10T13:40:00Z,30.0430,-88.6490,-1.4,25.4,2 
CenGOOS,ioos:station:wmo:42067:1,2011-10-10T14:00:00Z,30.0430,-88.6490,-1.4,25.4,2 
CenGOOS,ioos:station:wmo:42067:1,2011-10-10T15:40:00Z,30.0430,-88.6490,-1.4,25.5,2 
CenGOOS,ioos:station:wmo:42067:1,2011-10-10T16:00:00Z,30.0430,-88.6490,-1.4,25.5,2 
CenGOOS,ioos:station:wmo:42067:1,2011-10-10T17:40:00Z,30.0430,-88.6490,-1.4,25.5,2 
CenGOOS,ioos:station:wmo:42067:1,2011-10-10T18:00:00Z,30.0430,-88.6490,-1.4,25.5,2 
CenGOOS,ioos:station:wmo:42067:1,2011-10-10T18:40:00Z,30.0430,-88.6490,-1.4,25.6,2 
CenGOOS,ioos:station:wmo:42067:1,2011-10-10T19:00:00Z,30.0430,-88.6490,-1.4,25.6,2 
CenGOOS,ioos:station:wmo:42067:1,2011-10-10T19:40:00Z,30.0430,-88.6490,-1.4,25.8,2 
CenGOOS,ioos:station:wmo:42067:1,2011-10-10T20:00:00Z,30.0430,-88.6490,-1.4,25.8,2 
CenGOOS,ioos:station:wmo:42067:1,2011-10-11T00:40:00Z,30.0430,-88.6490,-1.4,25.2,2 
CenGOOS,ioos:station:wmo:42067:1,2011-10-11T01:00:00Z,30.0430,-88.6490,-1.4,25.2,2 
CenGOOS,ioos:station:wmo:42067:1,2011-10-11T02:40:00Z,30.0430,-88.6490,-1.4,25.2,2 
CenGOOS,ioos:station:wmo:42067:1,2011-10-11T03:00:00Z,30.0430,-88.6490,-1.4,25.2,2 
CenGOOS,ioos:station:wmo:42067:1,2011-10-11T03:40:00Z,30.0430,-88.6490,-1.4,25.1,2 
CenGOOS,ioos:station:wmo:42067:1,2011-10-11T04:00:00Z,30.0430,-88.6490,-1.4,25.1,2 
CenGOOS,ioos:station:wmo:42067:1,2011-10-11T04:40:00Z,30.0430,-88.6490,-1.4,25.1,2 
CenGOOS,ioos:station:wmo:42067:1,2011-10-11T05:00:00Z,30.0430,-88.6490,-1.4,25.1,2 
CenGOOS,ioos:station:wmo:42067:1,2011-10-11T05:40:00Z,30.0430,-88.6490,-1.4,25.0,2 
CenGOOS,ioos:station:wmo:42067:1,2011-10-11T06:00:00Z,30.0430,-88.6490,-1.4,25.0,2 
CenGOOS,ioos:station:wmo:42067:1,2011-10-11T06:40:00Z,30.0430,-88.6490,-1.4,25.0,2 
CenGOOS,ioos:station:wmo:42067:1,2011-10-11T07:00:00Z,30.0430,-88.6490,-1.4,25.0,2 
CenGOOS,ioos:station:wmo:42067:1,2011-10-11T07:40:00Z,30.0430,-88.6490,-1.4,25.0,2 
CenGOOS,ioos:station:wmo:42067:1,2011-10-11T08:00:00Z,30.0430,-88.6490,-1.4,25.0,2 
CenGOOS,ioos:station:wmo:42067:1,2011-10-11T08:40:00Z,30.0430,-88.6490,-1.4,25.0,2 
CenGOOS,ioos:station:wmo:42067:1,2011-10-11T09:00:00Z,30.0430,-88.6490,-1.4,25.0,2 
CenGOOS,ioos:station:wmo:42067:1,2011-10-11T09:40:00Z,30.0430,-88.6490,-1.4,25.0,2 
CenGOOS,ioos:station:wmo:42067:1,2011-10-11T10:00:00Z,30.0430,-88.6490,-1.4,25.0,2 
CenGOOS,ioos:station:wmo:42067:1,2011-10-11T13:40:00Z,30.0430,-88.6490,-1.4,25.0,2 
CenGOOS,ioos:station:wmo:42067:1,2011-10-11T14:00:00Z,30.0430,-88.6490,-1.4,25.0,2 
CenGOOS,ioos:station:wmo:42067:1,2011-10-11T14:40:00Z,30.0430,-88.6490,-1.4,24.9,2 
CenGOOS,ioos:station:wmo:42067:1,2011-10-11T15:00:00Z,30.0430,-88.6490,-1.4,24.9,2 
CenGOOS,ioos:station:wmo:42067:1,2011-10-11T15:40:00Z,30.0430,-88.6490,-1.4,25.0,2 
CenGOOS,ioos:station:wmo:42067:1,2011-10-11T16:00:00Z,30.0430,-88.6490,-1.4,25.0,2 
CenGOOS,ioos:station:wmo:42067:1,2011-10-11T17:40:00Z,30.0430,-88.6490,-1.4,25.1,2 
CenGOOS,ioos:station:wmo:42067:1,2011-10-11T18:00:00Z,30.0430,-88.6490,-1.4,25.1,2 
CenGOOS,ioos:station:wmo:42067:1,2011-10-11T23:40:00Z,30.0430,-88.6490,-1.4,25.2,2 
CenGOOS,ioos:station:wmo:42067:1,2011-10-12T00:00:00Z,30.0430,-88.6490,-1.4,25.2,2 
CenGOOS,ioos:station:wmo:42067:1,2011-10-12T01:40:00Z,30.0430,-88.6490,-1.4,25.3,2 
CenGOOS,ioos:station:wmo:42067:1,2011-10-12T02:00:00Z,30.0430,-88.6490,-1.4,25.3,2 
CenGOOS,ioos:station:wmo:42067:1,2011-10-12T03:40:00Z,30.0430,-88.6490,-1.4,25.3,2 
CenGOOS,ioos:station:wmo:42067:1,2011-10-12T04:00:00Z,30.0430,-88.6490,-1.4,25.3,2 
CenGOOS,ioos:station:wmo:42067:1,2011-10-12T07:40:00Z,30.0430,-88.6490,-1.4,25.3,2 
CenGOOS,ioos:station:wmo:42067:1,2011-10-12T08:00:00Z,30.0430,-88.6490,-1.4,25.3,2 
CenGOOS,ioos:station:wmo:42067:1,2011-10-12T08:40:00Z,30.0430,-88.6490,-1.4,25.3,2 
CenGOOS,ioos:station:wmo:42067:1,2011-10-12T09:00:00Z,30.0430,-88.6490,-1.4,25.3,2 
CenGOOS,ioos:station:wmo:42067:1,2011-10-12T09:40:00Z,30.0430,-88.6490,-1.4,25.3,2 
CenGOOS,ioos:station:wmo:42067:1,2011-10-12T10:00:00Z,30.0430,-88.6490,-1.4,25.3,2 
CenGOOS,ioos:station:wmo:42067:1,2011-10-12T10:40:00Z,30.0430,-88.6490,-1.4,25.3,2 
CenGOOS,ioos:station:wmo:42067:1,2011-10-12T11:00:00Z,30.0430,-88.6490,-1.4,25.3,2 
CenGOOS,ioos:station:wmo:42067:1,2011-10-12T11:40:00Z,30.0430,-88.6490,-1.4,25.3,2 
CenGOOS,ioos:station:wmo:42067:1,2011-10-12T12:00:00Z,30.0430,-88.6490,-1.4,25.3,2 
CenGOOS,ioos:station:wmo:42067:1,2011-10-12T12:40:00Z,30.0430,-88.6490,-1.4,25.3,2 
CenGOOS,ioos:station:wmo:42067:1,2011-10-12T13:00:00Z,30.0430,-88.6490,-1.4,25.3,2 
CenGOOS,ioos:station:wmo:42067:1,2011-10-12T13:40:00Z,30.0430,-88.6490,-1.4,25.2,2 
CenGOOS,ioos:station:wmo:42067:1,2011-10-12T14:00:00Z,30.0430,-88.6490,-1.4,25.2,2 
CenGOOS,ioos:station:wmo:42067:1,2011-10-12T14:40:00Z,30.0430,-88.6490,-1.4,25.2,2 
CenGOOS,ioos:station:wmo:42067:1,2011-10-12T15:00:00Z,30.0430,-88.6490,-1.4,25.2,2 
CenGOOS,ioos:station:wmo:42067:1,2011-10-12T15:40:00Z,30.0430,-88.6490,-1.4,25.2,2 
CenGOOS,ioos:station:wmo:42067:1,2011-10-12T16:00:00Z,30.0430,-88.6490,-1.4,25.2,2 
CenGOOS,ioos:station:wmo:42067:1,2011-10-12T16:40:00Z,30.0430,-88.6490,-1.4,25.3,2 
CenGOOS,ioos:station:wmo:42067:1,2011-10-12T17:00:00Z,30.0430,-88.6490,-1.4,25.3,2 
CenGOOS,ioos:station:wmo:42067:1,2011-10-12T18:40:00Z,30.0430,-88.6490,-1.4,25.5,2 
CenGOOS,ioos:station:wmo:42067:1,2011-10-12T19:00:00Z,30.0430,-88.6490,-1.4,25.5,2 
CenGOOS,ioos:station:wmo:42067:1,2011-10-12T19:40:00Z,30.0430,-88.6490,-1.4,25.5,2 
CenGOOS,ioos:station:wmo:42067:1,2011-10-12T20:00:00Z,30.0430,-88.6490,-1.4,25.5,2 
CenGOOS,ioos:station:wmo:42067:1,2011-10-12T20:40:00Z,30.0430,-88.6490,-1.4,25.7,2 
CenGOOS,ioos:station:wmo:42067:1,2011-10-12T21:00:00Z,30.0430,-88.6490,-1.4,25.7,2 
CenGOOS,ioos:station:wmo:42067:1,2011-10-12T21:40:00Z,30.0430,-88.6490,-1.4,25.7,2 
CenGOOS,ioos:station:wmo:42067:1,2011-10-12T22:00:00Z,30.0430,-88.6490,-1.4,25.7,2 
CenGOOS,ioos:station:wmo:42067:1,2011-10-12T22:40:00Z,30.0430,-88.6490,-1.4,25.6,2 
CenGOOS,ioos:station:wmo:42067:1,2011-10-12T23:00:00Z,30.0430,-88.6490,-1.4,25.6,2 
CenGOOS,ioos:station:wmo:42067:1,2011-10-13T00:40:00Z,30.0430,-88.6490,-1.4,25.3,2 
CenGOOS,ioos:station:wmo:42067:1,2011-10-13T01:00:00Z,30.0430,-88.6490,-1.4,25.3,2 
CenGOOS,ioos:station:wmo:42067:1,2011-10-13T02:40:00Z,30.0430,-88.6490,-1.4,25.1,2 
CenGOOS,ioos:station:wmo:42067:1,2011-10-13T03:00:00Z,30.0430,-88.6490,-1.4,25.1,2 
CenGOOS,ioos:station:wmo:42067:1,2011-10-13T04:40:00Z,30.0430,-88.6490,-1.4,25.1,2 
CenGOOS,ioos:station:wmo:42067:1,2011-10-13T05:00:00Z,30.0430,-88.6490,-1.4,25.1,2 
CenGOOS,ioos:station:wmo:42067:1,2011-10-13T23:40:00Z,30.0430,-88.6490,-1.4,25.1,2 
CenGOOS,ioos:station:wmo:42067:1,2011-10-14T04:40:00Z,30.0430,-88.6490,-1.4,25.3,2 
CenGOOS,ioos:station:wmo:42067:1,2011-10-14T05:00:00Z,30.0430,-88.6490,-1.4,25.3,2 
CenGOOS,ioos:station:wmo:42067:1,2011-10-14T05:40:00Z,30.0430,-88.6490,-1.4,25.4,2 
CenGOOS,ioos:station:wmo:42067:1,2011-10-14T06:00:00Z,30.0430,-88.6490,-1.4,25.4,2 
CenGOOS,ioos:station:wmo:42067:1,2011-10-14T07:40:00Z,30.0430,-88.6490,-1.4,25.4,2 
CenGOOS,ioos:station:wmo:42067:1,2011-10-14T08:00:00Z,30.0430,-88.6490,-1.4,25.4,2 
CenGOOS,ioos:station:wmo:42067:1,2011-10-14T08:40:00Z,30.0430,-88.6490,-1.4,25.4,2 
CenGOOS,ioos:station:wmo:42067:1,2011-10-14T09:00:00Z,30.0430,-88.6490,-1.4,25.4,2 
CenGOOS,ioos:station:wmo:42067:1,2011-10-14T10:40:00Z,30.0430,-88.6490,-1.4,24.6,2 
CenGOOS,ioos:station:wmo:42067:1,2011-10-14T11:00:00Z,30.0430,-88.6490,-1.4,24.6,2 
CenGOOS,ioos:station:wmo:42067:1,2011-10-14T12:40:00Z,30.0430,-88.6490,-1.4,24.7,2 
CenGOOS,ioos:station:wmo:42067:1,2011-10-14T13:00:00Z,30.0430,-88.6490,-1.4,24.7,2 
CenGOOS,ioos:station:wmo:42067:1,2011-10-14T14:40:00Z,30.0430,-88.6490,-1.4,24.7,2 
CenGOOS,ioos:station:wmo:42067:1,2011-10-14T15:00:00Z,30.0430,-88.6490,-1.4,24.7,2 
CenGOOS,ioos:station:wmo:42067:1,2011-10-14T16:40:00Z,30.0430,-88.6490,-1.4,25.0,2 
CenGOOS,ioos:station:wmo:42067:1,2011-10-14T17:00:00Z,30.0430,-88.6490,-1.4,25.0,2 
CenGOOS,ioos:station:wmo:42067:1,2011-10-14T17:40:00Z,30.0430,-88.6490,-1.4,25.1,2 
CenGOOS,ioos:station:wmo:42067:1,2011-10-14T18:40:00Z,30.0430,-88.6490,-1.4,25.3,2 
CenGOOS,ioos:station:wmo:42067:1,2011-10-14T19:00:00Z,30.0430,-88.6490,-1.4,25.3,2 
CenGOOS,ioos:station:wmo:42067:1,2011-10-14T19:40:00Z,30.0430,-88.6490,-1.4,25.5,2 
CenGOOS,ioos:station:wmo:42067:1,2011-10-14T23:40:00Z,30.0430,-88.6490,-1.4,25.4,2 
CenGOOS,ioos:station:wmo:42067:1,2011-10-15T00:00:00Z,30.0430,-88.6490,-1.4,25.4,2 
CenGOOS,ioos:station:wmo:42067:1,2011-10-15T00:40:00Z,30.0430,-88.6490,-1.4,25.4,2 
CenGOOS,ioos:station:wmo:42067:1,2011-10-15T01:00:00Z,30.0430,-88.6490,-1.4,25.4,2 
CenGOOS,ioos:station:wmo:42067:1,2011-10-15T01:40:00Z,30.0430,-88.6490,-1.4,25.4,2 
CenGOOS,ioos:station:wmo:42067:1,2011-10-15T02:00:00Z,30.0430,-88.6490,-1.4,25.4,2 
CenGOOS,ioos:station:wmo:42067:1,2011-10-15T02:40:00Z,30.0430,-88.6490,-1.4,25.4,2 
CenGOOS,ioos:station:wmo:42067:1,2011-10-15T03:00:00Z,30.0430,-88.6490,-1.4,25.4,2 
CenGOOS,ioos:station:wmo:42067:1,2011-10-15T03:40:00Z,30.0430,-88.6490,-1.4,25.4,2 
CenGOOS,ioos:station:wmo:42067:1,2011-10-15T04:00:00Z,30.0430,-88.6490,-1.4,25.4,2 
CenGOOS,ioos:station:wmo:42067:1,2011-10-15T04:40:00Z,30.0430,-88.6490,-1.4,25.5,2 
CenGOOS,ioos:station:wmo:42067:1,2011-10-15T05:00:00Z,30.0430,-88.6490,-1.4,25.5,2 
CenGOOS,ioos:station:wmo:42067:1,2011-10-15T05:40:00Z,30.0430,-88.6490,-1.4,25.5,2 
CenGOOS,ioos:station:wmo:42067:1,2011-10-15T06:00:00Z,30.0430,-88.6490,-1.4,25.5,2 
CenGOOS,ioos:station:wmo:42067:1,2011-10-15T06:40:00Z,30.0430,-88.6490,-1.4,25.5,2 
CenGOOS,ioos:station:wmo:42067:1,2011-10-15T07:00:00Z,30.0430,-88.6490,-1.4,25.5,2 
CenGOOS,ioos:station:wmo:42067:1,2011-10-15T07:40:00Z,30.0430,-88.6490,-1.4,25.5,2 
CenGOOS,ioos:station:wmo:42067:1,2011-10-15T08:40:00Z,30.0430,-88.6490,-1.4,25.4,2 
CenGOOS,ioos:station:wmo:42067:1,2011-10-15T12:40:00Z,30.0430,-88.6490,-1.4,25.1,2 
CenGOOS,ioos:station:wmo:42067:1,2011-10-15T14:40:00Z,30.0430,-88.6490,-1.4,25.1,2 
CenGOOS,ioos:station:wmo:42067:1,2011-10-15T16:40:00Z,30.0430,-88.6490,-1.4,24.9,2 
CenGOOS,ioos:station:wmo:42067:1,2011-10-15T20:40:00Z,30.0430,-88.6490,-1.4,25.3,2 
CenGOOS,ioos:station:wmo:42067:1,2011-10-15T22:40:00Z,30.0430,-88.6490,-1.4,25.4,2 
CenGOOS,ioos:station:wmo:42067:1,2011-10-15T23:00:00Z,30.0430,-88.6490,-1.4,25.4,2 
CenGOOS,ioos:station:wmo:42067:1,2011-10-16T00:40:00Z,30.0430,-88.6490,-1.4,25.5,2 
CenGOOS,ioos:station:wmo:42067:1,2011-10-16T01:00:00Z,30.0430,-88.6490,-1.4,25.5,2 
CenGOOS,ioos:station:wmo:42067:1,2011-10-16T07:40:00Z,30.0430,-88.6490,-1.4,25.2,2 
CenGOOS,ioos:station:wmo:42067:1,2011-10-16T08:00:00Z,30.0430,-88.6490,-1.4,25.2,2 
CenGOOS,ioos:station:wmo:42067:1,2011-10-16T08:40:00Z,30.0430,-88.6490,-1.4,25.2,2 